GW5357 Weather Reports


Display with metric or nautical units.
time (UTC)temp
F
wind
direction
speed
MPH
gust
MPH
rain 1hr
in
rain 24hr
in
rain mn
in
humidity
%
barometer
mb
20260505220505 61 46 4.0 12.0 0.00 0.00 0.00 76 1015.6
20260505220007 61 245 5.0 12.0 0.00 0.00 0.00 76 1015.6
20260505215506 61 276 4.0 11.0 0.00 0.00 0.00 77 1015.6
20260505215005 61 174 4.0 11.0 0.00 0.00 0.00 75 1015.7
20260505214506 61 28 3.0 11.0 0.00 0.00 0.00 77 1015.6
20260505214006 61 287 4.0 12.0 0.00 0.00 0.00 76 1015.6
20260505213006 61 215 4.0 10.0 0.00 0.00 0.00 76 1015.7
20260505212506 61 199 3.0 11.0 0.00 0.00 0.00 77 1015.7
20260505212006 61 238 5.0 10.0 0.00 0.00 0.00 76 1015.7
20260505211505 61 186 5.0 11.0 0.00 0.00 0.00 77 1015.7
20260505211008 60 299 3.0 11.0 0.00 0.00 0.00 78 1015.7
20260505210507 60 323 4.0 12.0 0.00 0.00 0.00 77 1015.7
20260505210008 61 285 4.0 12.0 0.00 0.00 0.00 77 1015.7
20260505204506 60 247 3.0 11.0 0.00 0.00 0.00 78 1015.8
20260505204005 61 310 5.0 10.0 0.00 0.00 0.00 77 1015.8
20260505203505 61 288 4.0 9.0 0.00 0.00 0.00 77 1015.9
20260505202506 60 248 5.0 12.0 0.00 0.00 0.00 77 1015.8
20260505202005 60 344 3.0 11.0 0.00 0.00 0.00 77 1015.9
20260505201505 60 194 5.0 11.0 0.00 0.00 0.00 78 1015.8
20260505201005 61 252 4.0 10.0 0.00 0.00 0.00 77 1015.8
20260505200005 61 197 3.0 13.0 0.00 0.00 0.00 78 1015.8
20260505195505 60 89 3.0 10.0 0.00 0.00 0.00 77 1015.8
20260505194505 60 152 3.0 16.0 0.00 0.00 0.00 78 1015.8
20260505194004 60 203 5.0 16.0 0.00 0.00 0.00 79 1015.9
20260505193505 60 281 3.0 13.0 0.00 0.00 0.00 79 1015.8
20260505193005 60 281 3.0 13.0 0.00 0.00 0.00 78 1015.9
20260505192505 60 319 3.0 11.0 0.00 0.00 0.00 78 1015.8
20260505192005 60 135 3.0 10.0 0.00 0.00 0.00 79 1015.8
20260505191507 60 20 4.0 10.0 0.00 0.00 0.00 79 1015.8
20260505191006 60 228 4.0 9.0 0.00 0.00 0.00 79 1015.8
20260505190504 60 250 3.0 9.0 0.00 0.00 0.00 80 1015.8
20260505190006 60 281 3.0 9.0 0.00 0.00 0.00 80 1015.8
20260505185005 59 175 3.0 11.0 0.00 0.00 0.00 80 1015.7
20260505184005 59 193 3.0 9.0 0.00 0.00 0.00 79 1015.9
20260505183506 59 142 3.0 7.0 0.00 0.00 0.00 81 1015.9
20260505183006 59 89 2.0 9.0 0.00 0.00 0.00 80 1015.8
20260505182505 59 238 3.0 9.0 0.00 0.00 0.00 81 1015.8
20260505182005 59 145 3.0 8.0 0.00 0.00 0.00 81 1015.8
20260505181006 59 89 3.0 9.0 0.00 0.00 0.00 81 1015.7
20260505180505 59 142 2.0 11.0 0.00 0.00 0.00 82 1015.6
20260505180006 59 303 3.0 10.0 0.00 0.00 0.00 81 1015.6
20260505175505 58 131 2.0 8.0 0.00 0.00 0.00 82 1015.6
20260505175005 58 124 2.0 12.0 0.00 0.00 0.00 83 1015.7
20260505174506 58 324 3.0 10.0 0.00 0.00 0.00 84 1015.6
20260505174007 57 167 4.0 10.0 0.00 0.00 0.00 84 1015.6
20260505173505 57 206 3.0 9.0 0.00 0.00 0.00 84 1015.6
20260505173006 57 236 3.0 9.0 0.00 0.00 0.00 84 1015.6
20260505171506 56 223 2.0 9.0 0.00 0.00 0.00 86 1015.6
20260505171005 56 248 3.0 9.0 0.00 0.00 0.00 86 1015.6
20260505170504 56 223 3.0 9.0 0.00 0.00 0.00 86 1015.6
20260505170006 55 46 2.0 8.0 0.00 0.00 0.00 86 1015.6
20260505165505 55 269 3.0 9.0 0.00 0.00 0.00 86 1015.5
20260505165006 55 135 3.0 9.0 0.00 0.00 0.00 87 1015.6
20260505164506 55 209 2.0 7.0 0.00 0.00 0.00 86 1015.5
20260505164006 55 89 2.0 7.0 0.00 0.00 0.00 86 1015.5
20260505163504 55 331 3.0 7.0 0.00 0.00 0.00 86 1015.5
20260505163007 55 201 2.0 6.0 0.00 0.00 0.00 86 1015.5
20260505162504 56 218 2.0 9.0 0.00 0.00 0.00 85 1015.5
20260505162006 56 72 2.0 10.0 0.00 0.00 0.00 85 1015.5
20260505161505 56 193 4.0 11.0 0.00 0.00 0.00 85 1015.4
20260505161005 56 117 5.0 11.0 0.00 0.00 0.00 85 1015.4
20260505153006 55 191 3.0 12.0 0.00 0.00 0.00 86 1015.2
20260505152506 55 331 3.0 12.0 0.00 0.00 0.00 86 1015.2
20260505152006 55 223 3.0 9.0 0.00 0.00 0.00 86 1015.1
20260505151505 55 135 4.0 8.0 0.00 0.00 0.00 86 1015.1
20260505150505 55 136 5.0 14.0 0.00 0.00 0.00 87 1015.0
20260505125002 54 107 4.0 11.0 0.00 0.00 0.00 87 1013.6
20260505124505 54 133 3.0 11.0 0.00 0.00 0.00 86 1013.6
20260505124003 54 161 4.0 10.0 0.00 0.00 0.00 86 1013.5
20260505123503 54 145 3.0 11.0 0.00 0.00 0.00 86 1013.5
20260505123007 54 254 5.0 11.0 0.00 0.00 0.00 86 1013.3
20260505122502 54 124 3.0 9.0 0.00 0.00 0.00 86 1013.3
20260505122005 54 173 3.0 12.0 0.00 0.00 0.00 85 1013.2
20260505121506 54 72 3.0 12.0 0.00 0.00 0.00 85 1013.2
20260505121005 54 178 5.0 12.0 0.00 0.00 0.00 85 1013.1
20260505120504 55 133 5.0 10.0 0.00 0.00 0.00 84 1013.1
20260505120007 55 314 2.0 9.0 0.00 0.00 0.00 84 1013.0
20260505115505 55 217 4.0 12.0 0.00 0.00 0.00 83 1013.0
20260505115004 55 149 4.0 12.0 0.00 0.00 0.00 83 1013.0
20260505114505 55 218 2.0 7.0 0.00 0.00 0.00 83 1012.9
20260505113505 55 148 2.0 12.0 0.00 0.00 0.00 82 1012.8
20260505112505 55 148 4.0 8.0 0.00 0.00 0.00 82 1012.7
20260505112005 55 135 3.0 8.0 0.00 0.00 0.00 82 1012.6
20260505111506 55 157 3.0 8.0 0.00 0.00 0.00 82 1012.5
20260505111005 55 79 3.0 7.0 0.00 0.00 0.00 82 1012.5
20260505110505 55 135 3.0 7.0 0.00 0.00 0.00 82 1012.4
20260505102005 56 125 2.0 8.0 0.00 0.00 0.00 81 1012.0
20260505101504 56 28 2.0 9.0 0.00 0.00 0.00 81 1012.0
20260505101005 56 221 4.0 9.0 0.00 0.00 0.00 81 1011.9
20260505100504 56 223 2.0 6.0 0.00 0.00 0.00 80 1011.9
20260505100007 56 178 3.0 6.0 0.00 0.00 0.00 80 1011.8
20260505095504 56 223 2.0 6.0 0.00 0.00 0.00 79 1011.8
20260505095005 56 202 2.0 6.0 0.00 0.00 0.00 79 1011.7
20260505094504 56 135 2.0 6.0 0.00 0.00 0.00 78 1011.8
20260505094005 57 223 3.0 7.0 0.00 0.00 0.00 77 1011.7
20260505093504 57 194 3.0 8.0 0.00 0.00 0.00 77 1011.7
20260505093007 57 223 2.0 8.0 0.00 0.00 0.00 75 1011.6
20260505092501 57 126 2.0 8.0 0.00 0.00 0.00 75 1011.5
20260505092004 57 132 3.0 7.0 0.00 0.00 0.00 73 1011.5
20260505091505 58 120 3.0 9.0 0.00 0.00 0.00 71 1011.5
20260505091004 58 150 4.0 9.0 0.00 0.00 0.00 69 1011.5
20260505090505 58 161 1.0 5.0 0.00 0.00 0.00 68 1011.4
20260505090005 58 122 3.0 7.0 0.00 0.00 0.00 68 1011.3
20260505085500 58 124 3.0 7.0 0.00 0.00 0.00 68 1011.3
20260505085006 58 89 3.0 7.0 0.00 0.00 0.00 68 1011.3
20260505084505 58 115 3.0 7.0 0.00 0.00 0.00 69 1011.3
20260505084005 58 127 4.0 7.0 0.00 0.00 0.00 71 1011.2
20260505083005 58 155 3.0 5.0 0.00 0.00 0.00 72 1011.2
20260505082005 57 110 3.0 4.0 0.00 0.00 0.00 73 1011.0
20260505081506 57 139 2.0 4.0 0.00 0.00 0.00 73 1010.9
20260505081006 57 127 2.0 4.0 0.00 0.00 0.00 74 1010.9
20260505080500 57 46 2.0 4.0 0.00 0.00 0.00 75 1010.8
20260505080000 57 269 1.0 3.0 0.00 0.00 0.00 75 1010.8
20260505075458 57 269 1.0 5.0 0.00 0.00 0.00 76 1010.8
20260505075000 57 190 1.0 7.0 0.00 0.00 0.00 76 1010.7
20260505073458 57 84 3.0 6.0 0.00 0.00 0.00 75 1010.3
20260505072459 58 53 2.0 5.0 0.00 0.00 0.00 75 1010.3
20260505071958 58 260 2.0 6.0 0.00 0.00 0.00 75 1010.2
20260505071459 58 117 1.0 6.0 0.00 0.00 0.00 75 1010.2
20260505071000 58 216 2.0 6.0 0.00 0.00 0.00 74 1010.2
20260505070459 58 135 2.0 4.0 0.00 0.00 0.00 74 1010.2
20260505070008 58 139 1.0 6.0 0.00 0.00 0.00 74 1010.2
20260505065504 58 122 2.0 6.0 0.00 0.00 0.00 74 1010.1
20260505064505 59 206 1.0 7.0 0.00 0.00 0.00 73 1010.0
20260505063504 59 241 2.0 4.0 0.00 0.00 0.00 73 1010.0
20260505063005 59 117 2.0 4.0 0.00 0.00 0.00 73 1010.0
20260505062504 59 178 2.0 4.0 0.00 0.00 0.00 72 1010.0
20260505062005 59 117 2.0 5.0 0.00 0.00 0.00 73 1009.9
20260505061004 59 89 1.0 4.0 0.00 0.00 0.00 74 1009.8
20260505060504 59 286 1.0 4.0 0.00 0.00 0.00 74 1009.7
20260505060007 59 89 1.0 3.0 0.00 0.00 0.00 74 1009.8
20260505055507 59 89 1.0 4.0 0.00 0.00 0.00 74 1009.7
20260505055006 59 161 1.0 5.0 0.00 0.00 0.00 74 1009.7
20260505054506 60 223 1.0 5.0 0.00 0.00 0.00 74 1009.6
20260505054007 60 314 1.0 3.0 0.00 0.00 0.00 73 1009.6
20260505053505 60 117 1.0 4.0 0.00 0.00 0.00 73 1009.5
20260505053006 60 46 1.0 4.0 0.00 0.00 0.00 73 1009.5
20260505052506 60 129 1.0 5.0 0.00 0.00 0.00 73 1009.5
20260505052005 61 269 2.0 5.0 0.00 0.00 0.00 74 1009.5
20260505051506 61 269 1.0 4.0 0.00 0.00 0.00 74 1009.4
20260505051006 61 165 1.0 2.0 0.00 0.00 0.00 74 1009.4
20260505050505 61 1 1.0 3.0 0.00 0.00 0.00 74 1009.3
20260505041005 62 135 1.0 5.0 0.00 0.00 0.00 75 1009.2
20260505040506 62 72 1.0 3.0 0.00 0.00 0.00 75 1009.0
20260505040006 62 89 1.0 3.0 0.00 0.00 0.00 75 1009.0
20260505035505 62 124 1.0 3.0 0.00 0.00 0.00 75 1008.9
20260505034505 63 344 1.0 4.0 0.00 0.00 0.00 74 1008.9
20260505034006 63 142 2.0 4.0 0.00 0.00 0.00 72 1008.8
20260505033506 64 161 1.0 2.0 0.00 0.00 0.00 71 1008.7
20260505033010 64 178 1.0 3.0 0.00 0.00 0.00 70 1008.6
20260505032505 65 89 1.0 3.0 0.00 0.00 0.00 69 1008.5
20260505032005 65 296 1.0 3.0 0.00 0.00 0.00 67 1008.4
20260505031505 66 35 1.0 3.0 0.00 0.00 0.00 63 1008.4
20260505031006 67 295 1.0 3.0 0.00 0.00 0.00 60 1008.3
20260505030507 69 46 1.0 2.0 0.00 0.00 0.00 57 1008.2
20260505030008 70 1 0.0 2.0 0.00 0.00 0.00 53 1008.2
20260505025505 71 72 1.0 2.0 0.00 0.00 0.00 51 1008.3
20260505025007 71 135 1.0 2.0 0.00 0.00 0.00 48 1008.4
20260505024506 72 269 1.0 2.0 0.00 0.00 0.00 45 1008.4
20260505024005 72 178 0.0 3.0 0.00 0.00 0.00 45 1008.4
20260505023507 72 113 1.0 6.0 0.00 0.00 0.00 44 1008.4
20260505023006 72 135 2.0 6.0 0.00 0.00 0.00 44 1008.5
20260505022504 72 135 2.0 5.0 0.00 0.00 0.00 44 1008.5
20260505022006 71 98 2.0 5.0 0.00 0.00 0.00 44 1008.6
20260505021507 71 178 2.0 7.0 0.00 0.00 0.00 45 1008.6
20260505021005 71 173 2.0 7.0 0.00 0.00 0.00 45 1008.6
20260505020505 71 213 3.0 7.0 0.00 0.00 0.00 44 1008.7
20260505020015 71 127 4.0 7.0 0.00 0.00 0.00 44 1008.8
20260505015005 71 178 3.0 9.0 0.00 0.00 0.00 45 1008.8
20260505014510 71 165 3.0 8.0 0.00 0.00 0.00 44 1008.8
20260505014005 71 89 4.0 8.0 0.00 0.00 0.00 45 1008.8
20260505013505 72 113 2.0 6.0 0.00 0.00 0.00 46 1008.8
20260505013008 72 161 3.0 6.0 0.00 0.00 0.00 46 1008.8
20260505012504 72 131 2.0 6.0 0.00 0.00 0.00 45 1008.8
20260505012006 72 223 2.0 8.0 0.00 0.00 0.00 47 1008.8
20260505011510 72 135 2.0 8.0 0.00 0.00 0.00 48 1008.8
20260505011005 72 135 3.0 7.0 0.00 0.00 0.00 46 1008.9
20260505010505 73 190 2.0 6.0 0.00 0.00 0.00 49 1008.9
20260505010009 73 269 2.0 6.0 0.00 0.00 0.00 47 1008.9
20260505005506 74 131 2.0 6.0 0.00 0.00 0.00 49 1008.9
20260505003504 74 234 2.0 6.0 0.00 0.00 0.00 49 1008.9
20260505003012 74 161 3.0 6.0 0.00 0.00 0.00 48 1008.9
20260505002505 74 269 2.0 7.0 0.00 0.00 0.00 51 1009.0
20260505002005 74 314 2.0 7.0 0.00 0.00 0.00 49 1009.0
20260505001510 74 193 2.0 6.0 0.00 0.00 0.00 49 1009.0
20260505001006 74 117 2.0 7.0 0.00 0.00 0.00 48 1009.1
20260505000504 74 1 2.0 6.0 0.00 0.00 0.00 49 1009.1
20260505000008 74 117 2.0 6.0 0.00 0.00 0.00 48 1009.1
20260504235504 75 178 2.0 5.0 0.00 0.00 0.00 46 1009.1
20260504235005 75 63 2.0 7.0 0.00 0.00 0.00 49 1009.3
20260504234506 75 206 2.0 7.0 0.00 0.00 0.00 48 1009.3
20260504234005 75 269 3.0 7.0 0.00 0.00 0.00 47 1009.3
20260504233505 75 269 2.0 7.0 0.00 0.00 0.00 45 1009.4
20260504233005 75 213 2.0 7.0 0.00 0.00 0.00 46 1009.3
20260504232504 76 173 3.0 7.0 0.00 0.00 0.00 44 1009.3
20260504231505 76 187 2.0 6.0 0.00 0.00 0.00 45 1009.4
20260504231005 76 53 3.0 6.0 0.00 0.00 0.00 44 1009.4
20260504230504 76 344 2.0 8.0 0.00 0.00 0.00 43 1009.5
20260504230005 76 197 3.0 8.0 0.00 0.00 0.00 43 1009.5
20260504225005 75 314 2.0 6.0 0.00 0.00 0.00 45 1009.6
20260504224508 75 288 3.0 6.0 0.00 0.00 0.00 43 1009.6
20260504224004 76 223 1.0 5.0 0.00 0.00 0.00 46 1009.7
20260504223504 75 203 3.0 5.0 0.00 0.00 0.00 48 1009.7
20260504223006 75 281 2.0 5.0 0.00 0.00 0.00 48 1009.8
20260504222505 74 260 2.0 5.0 0.00 0.00 0.00 48 1009.9
20260504222007 74 218 2.0 7.0 0.00 0.00 0.00 48 1010.0
20260504221505 74 46 3.0 7.0 0.00 0.00 0.00 49 1009.9
20260504221006 74 283 3.0 6.0 0.00 0.00 0.00 48 1009.9